COSMOS 2251 DEB, 35469

Orbit data source: Space-Track

COSMOS 2251 DEB, 35469 is space debris in LEO originally from a launch on Wed, 16 Jun 1993 UTC launched from the Plesetsk Missile And Space Complex (PKMTR). The debris from Iridium 33, an American commercial communications satellite, has been tracked extensively since its accidental collision with the defunct Russian satellite Cosmos 2251 in 2009. This event, occurring at high speed in low Earth orbit (LEO), generated thousands of pieces of space debris, significantly increasing the risk of further collisions. The Iridium 33 debris cloud has impacted space traffic management and orbital debris mitigation strategies, making it a subject of ongoing study in space situational awareness.

Loading next visibility...
Identifier
35469, 1993-036ALP
Orbit
LEO
Country
Flag of CISCIS
Related business
Manufacturer
Unknown
Mission
Spacecraft
Bus & Motor
Unknown
Mass
Unknown
Launch date (UTC)
1993-06-16 (33 years ago)
Launch vehicle
Unknown
Launch site
Plesetsk Missile And Space Complex (PKMTR)
Object type
Payload
Rocket body
Debris
Shape & HBR
Unknown shape, 0.1 m
Radar Cross Section
Small (<0.1 m²)

Expand to show TLE details & history
Last TLE update: 1 day ago

TLE from 1 day ago
0 COSMOS 2251 DEB
1 35469U 93036ALP 26264.54330865  .00000188  00000-0  54329-4 0  9996
2 35469  74.0166 212.1873 0077979 296.9992  62.3221 14.50025872922106
Epoch: 2026-09-21T13:02Z
TLE epoch observation values (Epoch: 2026-09-21T13:02:21.867Z)
Latitude
-0.00001°
Longitude
16.17456°
Altitude
702.797 km
Speed
7.518 km/s
True Right ascension
14h 08m 44s
True Declination
0° 00' 00"
Sunlit
Object was in daylight at epoch
Visualization orbit readout
Latitude
Unknown
Longitude
Unknown
Altitude
Unknown
Speed
Unknown
Apparent Right ascension
Unknown
Apparent Declination
Unknown
Sunlit
N/A
Visualization observer readout
Local Sidereal Time
11:53:25
Azimuth
Unknown
Elevation
Unknown
Doppler factor
Unknown
Orbital elements
Apogee altitude
778.549 km
Perigee altitude
667.799 km
Semi-major axis
7,101.311 km
Eccentricity
0.0078
Inclination
74.0166°
RAAN
212.1873°
Arg. of periapsis
296.9992°
True anomaly
63.117°
Mean anomaly
62.3221°
Eccentric anomaly
62.71919°
Mean motion
3.6269 °/min
Orbital period
99.26 mins
BSTAR
0.000054329

Documentation

Showing up to 5 results
|